Hannibal Rgnl AP, Hannibal, M, MO

4:02 PM CST on November 21, 2019 (GMT -0600)
Hannibal Municipal

Weather History for KHAE - October, 2019

Change the Weather History Date:

Monday, October 21, 2019

  Actual Average Record
Temperature  
Mean Temperature 56 °F -  
Max Temperature 60 °F 64 °F 86 °F (2015)
Min Temperature 51 °F 42 °F 28 °F (2018)
Degree Days  
Heating Degree Days 10    
Growing Degree Days 6 (Base 50)    
Moisture  
Dew Point 44 °F    
Average Humidity 64    
Maximum Humidity 94    
Minimum Humidity 44    
Precipitation  
Precipitation 0.62 in - - ()
Sea Level Pressure  
Sea Level Pressure 29.56 in    
Wind  
Wind Speed 9 mph ()    
Max Wind Speed 24 mph    
Max Gust Speed 31 mph    
Visibility 9.1 miles    
Events Rain , Thunderstorm    
Averages and records for this station are not official NWS values.
T = Trace of Precipitation, MM = Missing Value Source: Averaged Metar Reports

Daily Weather History Graph

Daily Weather History Graph

Search for Another Location

Airport or City:

Astronomy

Oct. 21, 2019 Rise Set
Actual Time 7:22 AM CDT 6:18 PM CDT
Civil Twilight 6:54 AM CDT 6:45 PM CDT
Nautical Twilight 6:23 AM CDT 7:16 PM CDT
Astronomical Twilight 5:51 AM CDT 7:48 PM CDT
Moon No Moon Rise 2:39 PM CDT
Length of Visible Light 11h 50m
Length of Day
10h 56m
Waning Gibbous, 48% of the Moon is Illuminated
Oct 21
Waning Gibbous
Oct 27
New
Nov 4
First Quarter
Nov 12
Full
Nov 19
Last Quarter

Hourly Weather History & Observations

Time (CDT) Temp. Dew Point Humidity Pressure Visibility Wind Dir Wind Speed Gust Speed Precip Events Conditions
12:15 AM 59.0 °F 51.8 °F 77% 29.67 in 10.0 mi ESE 5.8 mph - N/A   Mostly Cloudy
12:35 AM 59.0 °F 51.8 °F 77% 29.66 in 10.0 mi ESE 5.8 mph - N/A   Scattered Clouds
12:55 AM 59.0 °F 51.8 °F 77% 29.65 in 10.0 mi ESE 3.5 mph - N/A   Clear
1:15 AM 59.0 °F 51.8 °F 77% 29.63 in 10.0 mi East 4.6 mph - N/A   Scattered Clouds
1:35 AM 59.0 °F 51.8 °F 77% 29.62 in 10.0 mi ESE 5.8 mph - N/A   Scattered Clouds
1:55 AM 59.0 °F 51.8 °F 77% 29.61 in 10.0 mi ESE 6.9 mph - N/A   Scattered Clouds
2:15 AM 59.0 °F 51.8 °F 77% 29.61 in 10.0 mi ESE 5.8 mph - N/A   Mostly Cloudy
2:35 AM 59.0 °F 51.8 °F 77% 29.59 in 10.0 mi ESE 6.9 mph - N/A   Overcast
2:55 AM 59.0 °F 51.8 °F 77% 29.59 in 10.0 mi ESE 5.8 mph - N/A Rain , Thunderstorm Light Thunderstorms and Rain
3:15 AM 59.0 °F 51.8 °F 77% 29.58 in 10.0 mi ESE 4.6 mph - N/A Rain , Thunderstorm Thunderstorms and Rain
3:35 AM 59.0 °F 53.6 °F 82% 29.58 in 10.0 mi SE 3.5 mph - 0.02 in Rain , Thunderstorm Thunderstorms and Rain
3:55 AM 59.0 °F 53.6 °F 82% 29.56 in 3.0 mi Calm Calm - 0.08 in Rain , Thunderstorm Thunderstorms and Rain
4:15 AM 57.2 °F 55.4 °F 94% 29.57 in 2.0 mi Calm Calm - 0.07 in Rain , Thunderstorm Heavy Thunderstorms and Rain
4:35 AM 57.2 °F 55.4 °F 94% 29.53 in 2.5 mi NNW 4.6 mph - 0.19 in Rain , Thunderstorm Rain
4:55 AM 57.2 °F 55.4 °F 94% 29.53 in 1.5 mi NW 6.9 mph - 0.42 in Rain , Thunderstorm Heavy Thunderstorms and Rain
5:15 AM 57.2 °F 55.4 °F 94% 29.39 in 0.8 mi ENE 16.1 mph 24.2 mph 0.11 in Rain Light Rain
5:35 AM 57.2 °F 55.4 °F 94% 29.41 in 5.0 mi ESE 11.5 mph 18.4 mph 0.11 in   Overcast
5:55 AM 57.2 °F 55.4 °F 94% 29.43 in 10.0 mi Calm Calm - 0.11 in   Mostly Cloudy
6:15 AM 57.2 °F 55.4 °F 94% 29.42 in 10.0 mi SE 4.6 mph - N/A   Mostly Cloudy
6:35 AM 57.2 °F 55.4 °F 94% 29.42 in 7.0 mi South 4.6 mph - N/A   Overcast
6:55 AM 57.2 °F 55.4 °F 94% 29.42 in 7.0 mi South 5.8 mph - N/A   Overcast
7:15 AM 57.2 °F 55.4 °F 94% 29.42 in 7.0 mi South 6.9 mph - N/A   Overcast
7:35 AM 57.2 °F 55.4 °F 94% 29.42 in 7.0 mi South 8.1 mph - N/A   Overcast
7:55 AM 59.0 °F 55.4 °F 88% 29.43 in 10.0 mi SW 12.7 mph 18.4 mph N/A   Overcast
8:15 AM 59.0 °F 55.4 °F 88% 29.44 in 5.0 mi SW 15.0 mph 20.7 mph 0.01 in   Drizzle
8:35 AM 59.0 °F 55.4 °F 88% 29.45 in 10.0 mi SW 13.8 mph 19.6 mph 0.01 in   Overcast
8:55 AM 59.0 °F 53.6 °F 82% 29.45 in 10.0 mi SW 13.8 mph 19.6 mph 0.01 in   Overcast
9:35 AM 55.4 °F 46.4 °F 72% 29.47 in 10.0 mi WSW 11.5 mph 17.3 mph N/A   Mostly Cloudy
9:55 AM 57.2 °F 44.6 °F 63% 29.48 in 10.0 mi WSW 12.7 mph 19.6 mph N/A   Clear
10:15 AM 57.2 °F 41.0 °F 55% 29.49 in 10.0 mi WSW 15.0 mph 25.3 mph N/A   Clear
10:35 AM 59.0 °F 41.0 °F 51% 29.49 in 10.0 mi SW 11.5 mph - N/A   Unknown
11:15 AM 59.0 °F 39.2 °F 48% 29.49 in 10.0 mi SW 16.1 mph 25.3 mph N/A   Clear
11:35 AM 59.0 °F 41.0 °F 51% 29.50 in 10.0 mi WSW 13.8 mph 23.0 mph N/A   Clear
11:55 AM 59.0 °F 37.4 °F 45% 29.51 in 10.0 mi SW 13.8 mph 24.2 mph N/A   Clear
12:15 PM 60.8 °F 39.2 °F 45% 29.52 in 10.0 mi SW 12.7 mph 20.7 mph N/A   Clear
12:35 PM 60.8 °F 39.2 °F 45% 29.52 in 10.0 mi SW 15.0 mph 21.9 mph N/A   Clear
12:55 PM 59.0 °F 39.2 °F 48% 29.53 in 10.0 mi SW 17.3 mph 28.8 mph N/A   Scattered Clouds
1:15 PM 59.0 °F 37.4 °F 45% 29.53 in 10.0 mi SW 20.7 mph 27.6 mph N/A   Scattered Clouds
1:35 PM 59.0 °F 37.4 °F 45% 29.54 in 10.0 mi SW 16.1 mph 28.8 mph N/A   Scattered Clouds
1:55 PM 59.0 °F 37.4 °F 45% 29.54 in 10.0 mi WSW 18.4 mph 28.8 mph N/A   Mostly Cloudy
2:15 PM 57.2 °F 37.4 °F 48% 29.55 in 10.0 mi SW 17.3 mph 26.5 mph N/A   Mostly Cloudy
2:55 PM 57.2 °F 35.6 °F 44% 29.56 in 10.0 mi WSW 19.6 mph 27.6 mph N/A   Overcast
3:15 PM 57.2 °F 35.6 °F 44% 29.57 in 10.0 mi WSW 17.3 mph 31.1 mph N/A   Overcast
3:55 PM 55.4 °F 35.6 °F 47% 29.58 in 10.0 mi WSW 17.3 mph 24.2 mph N/A   Overcast
4:15 PM 55.4 °F 35.6 °F 47% 29.59 in 10.0 mi SW 24.2 mph 31.1 mph N/A   Overcast
4:35 PM 57.2 °F 35.6 °F 44% 29.59 in 10.0 mi SW 15.0 mph 28.8 mph N/A   Mostly Cloudy
4:55 PM 55.4 °F 35.6 °F 47% 29.60 in 10.0 mi SW 18.4 mph 31.1 mph N/A   Mostly Cloudy
5:15 PM 55.4 °F 35.6 °F 47% 29.61 in 10.0 mi SW 19.6 mph 26.5 mph N/A   Overcast
5:35 PM 57.2 °F 35.6 °F 44% 29.61 in 10.0 mi SW 13.8 mph 26.5 mph N/A   Overcast
5:55 PM 55.4 °F 35.6 °F 47% 29.61 in 10.0 mi WSW 12.7 mph 24.2 mph N/A   Scattered Clouds
6:15 PM 55.4 °F 35.6 °F 47% 29.62 in 10.0 mi WSW 17.3 mph 23.0 mph N/A   Mostly Cloudy
6:35 PM 55.4 °F 35.6 °F 47% 29.62 in 10.0 mi WSW 15.0 mph 25.3 mph N/A   Overcast
6:55 PM 55.4 °F 33.8 °F 44% 29.63 in 10.0 mi SW 15.0 mph 20.7 mph N/A   Overcast
7:15 PM 55.4 °F 33.8 °F 44% 29.64 in 10.0 mi SW 15.0 mph 25.3 mph N/A   Mostly Cloudy
7:35 PM 55.4 °F 33.8 °F 44% 29.65 in 10.0 mi SW 12.7 mph 21.9 mph N/A   Mostly Cloudy
7:55 PM 55.4 °F 33.8 °F 44% 29.65 in 10.0 mi SW 12.7 mph 18.4 mph N/A   Overcast
8:15 PM 55.4 °F 33.8 °F 44% 29.65 in 10.0 mi SW 13.8 mph 21.9 mph N/A   Overcast
8:55 PM 53.6 °F 33.8 °F 47% 29.66 in 10.0 mi SW 10.4 mph 18.4 mph N/A   Scattered Clouds
9:15 PM 53.6 °F 35.6 °F 51% 29.66 in 10.0 mi SW 11.5 mph 19.6 mph N/A   Scattered Clouds
9:35 PM 51.8 °F 35.6 °F 54% 29.66 in 10.0 mi SW 11.5 mph - N/A   Clear
10:15 PM 51.8 °F 35.6 °F 54% 29.67 in 10.0 mi SW 10.4 mph 18.4 mph N/A   Clear
10:35 PM 51.8 °F 35.6 °F 54% 29.67 in 10.0 mi WSW 12.7 mph 18.4 mph N/A   Clear
10:55 PM 51.8 °F 35.6 °F 54% 29.68 in 10.0 mi WSW 12.7 mph 17.3 mph N/A   Clear
11:15 PM 51.8 °F 35.6 °F 54% 29.68 in 10.0 mi SW 11.5 mph 19.6 mph N/A   Clear
11:35 PM 51.8 °F 37.4 °F 58% 29.68 in 10.0 mi WSW 11.5 mph - N/A   Mostly Cloudy
11:55 PM 51.8 °F 37.4 °F 58% 29.68 in 10.0 mi WSW 10.4 mph - N/A   Overcast